Flag for U.S.A. Weather past 2 weeks in Providence, Rhode Island, U.S.A.

Now
85 °F

Sunny.


Feels Like: 87 °F
Forecast: 69 / 87 °F
Wind: 15 mph from Southwest

Location: Green State Airport

Current Time: Aug 4, 2015 at 2:42:47 PM

Latest Report: Aug 4, 2015 at 1:51 PM


Visibility: 10 mi

Pressure: 29.83 "Hg

Humidity: 53%

Dew point: 66 °F

Location of ProvidenceLocation

Historic Weather in Providence — Graph

°F

Providence temperature yesterday

Maximum temperature yesterday: 88 °F (at 12:51 PM)
Minimum temperature yesterday: 68 °F (at 3:51 AM)
Average temperature yesterday: 78 °F

Past Weeks' High & Low Weather Summary

 TemperatureHumidityPressure
High93 °F (Jul 29, 2:51 PM)97% (Jul 28, 1:51 AM)30.06 "Hg (Jul 28, 1:51 AM)
Low61 °F (Jul 24, 5:51 AM)32% (Aug 2, 3:51 PM)29.55 "Hg (Jul 21, 6:51 PM)
Average76 °F68%29.86 "Hg
* Reported Jul 20 12:51 PM — Aug 4 12:51 PM, Providence, Weather by CustomWeather, © 2015

Note: Actual official high and low records may vary slightly from our data, if they occured in-between our weather recording intervals... More about our weather records

Advertising

Providence weather history for previous 24 hours

 ConditionsComfort  
Time TempWeatherWind HumidityBarometerVisibility
12:51 PM
Tue, Aug 4
84 °FSunny.12 mph57%29.84 "Hg10 mi
11:51 AM82 °FPassing clouds.10 mph63%29.85 "Hg10 mi
10:51 AM79 °FSunny.9 mph72%29.86 "Hg10 mi
9:51 AM76 °FSunny.9 mph80%29.87 "Hg10 mi
8:51 AM72 °FSunny.5 mph84%29.87 "Hg10 mi
7:51 AM68 °FSunny.No wind96%29.85 "Hg10 mi
6:55 AM66 °FThunderstorms. Fog.8 mph96%29.83 "Hg3 mi
5:51 AM75 °FFog.5 mph90%29.82 "Hg5 mi
4:51 AM75 °FPassing clouds.6 mph90%29.84 "Hg9 mi
3:51 AM75 °FClear.9 mph90%29.82 "Hg9 mi
2:51 AM76 °FPassing clouds.7 mph85%29.83 "Hg10 mi
1:51 AM76 °FClear.9 mph85%29.83 "Hg10 mi
12:51 AM76 °FPassing clouds.9 mph85%29.83 "Hg9 mi
11:51 PM
Mon, Aug 3
76 °FPassing clouds.10 mph85%29.83 "Hg10 mi
10:51 PM75 °FPassing clouds.13 mph88%29.83 "Hg10 mi
9:51 PM76 °FPassing clouds.10 mph82%29.83 "Hg10 mi
8:51 PM76 °FScattered clouds.13 mph80%29.81 "Hg10 mi
7:51 PM77 °FPartly sunny.13 mph74%29.80 "Hg10 mi
6:51 PM80 °FPartly sunny.14 mph60%29.79 "Hg10 mi
5:51 PM83 °FPassing clouds.13 mph50%29.79 "Hg10 mi
4:51 PM85 °FPassing clouds.20 mph43%29.79 "Hg10 mi
3:51 PM87 °FPassing clouds.18 mph43%29.80 "Hg10 mi
2:51 PM87 °FScattered clouds.16 mph48%29.81 "Hg10 mi
Weather by CustomWeather, © 2015

See weather overviewHow to use our weather pages